period_start,C,m1,H,J0,J1,J2,J3,J4,J5,JA,JB,JC,JD,JJ,JK,JN,#
2013-11-19 00:00:42,0.13,0.81,0.00,25.16,26.57,29.33,5.92,31.00,1014.17,2048.15,3181.85,3112.04,3376.06,350.05,320.45,12.22,0000 0000 0000 0000 000000
2013-11-19 00:01:43,0.02,0.81,0.00,25.17,26.57,29.34,5.98,30.96,1014.17,2048.09,3181.35,3111.85,3375.79,350.40,320.80,12.22,0000 0000 0000 0000 000000
2013-11-19 00:02:43,0.12,0.81,0.00,25.18,26.57,29.37,5.89,31.04,1014.17,2048.06,3181.13,3111.41,3375.37,350.48,321.68,12.23,0000 0000 0000 0000 000000
2013-11-19 00:03:43,0.16,0.81,0.00,25.20,26.57,29.35,5.88,30.58,1014.17,2048.04,3180.86,3111.15,3375.13,350.49,321.00,12.24,0000 0000 0000 0000 000000
2013-11-19 00:04:43,0.11,0.81,0.00,25.22,26.58,29.38,6.02,31.29,1014.17,2048.04,3180.35,3111.04,3375.03,350.57,321.31,12.24,0000 0000 0000 0000 000000
2013-11-19 00:05:44,0.11,0.81,0.00,25.20,26.59,29.33,6.00,31.25,1014.17,2048.04,3180.12,3110.93,3374.63,349.57,320.33,12.25,0000 0000 0000 0000 000000
2013-11-19 00:06:44,0.11,0.81,0.00,25.21,26.60,29.37,6.02,30.96,1014.17,2048.04,3179.97,3110.44,3374.23,350.42,321.19,12.25,0000 0000 0000 0000 000000
2013-11-19 00:07:44,0.18,0.81,0.00,25.22,26.60,29.36,5.93,31.00,1014.17,2048.03,3179.51,3110.16,3374.08,350.42,321.17,12.26,0000 0000 0000 0000 000000
2013-11-19 00:08:44,0.13,0.81,0.00,25.21,26.60,29.38,5.94,30.63,1014.17,2048.01,3179.19,3110.05,3373.95,349.79,320.59,12.27,0000 0000 0000 0000 000000
2013-11-19 00:09:45,0.08,0.81,0.00,25.22,26.60,29.43,5.88,31.00,1014.17,2048.02,3178.99,3109.96,3373.58,349.25,320.10,12.27,0000 0000 0000 0000 000000
2013-11-19 00:10:45,0.12,0.81,0.00,25.23,26.60,29.36,5.95,30.79,1014.15,2048.02,3178.49,3109.63,3373.22,350.28,320.96,12.28,0000 0000 0000 0000 000000
2013-11-19 00:11:45,0.18,0.81,0.00,25.23,26.60,29.42,5.84,30.75,1014.13,2048.01,3178.17,3109.26,3373.08,350.10,320.70,12.28,0000 0000 0000 0000 000000
2013-11-19 00:12:46,0.14,0.81,0.00,25.23,26.61,29.42,5.95,30.71,1014.15,2048.01,3178.02,3109.09,3372.81,349.73,321.46,12.29,0000 0000 0000 0000 000000
2013-11-19 00:13:46,0.10,0.82,0.00,25.23,26.62,29.38,5.78,30.96,1014.17,2048.00,3177.58,3109.00,3372.37,348.91,319.78,12.29,0000 0000 0000 0000 000000
2013-11-19 00:14:46,0.15,0.82,0.00,25.22,26.62,29.42,5.75,30.83,1014.17,2048.02,3177.23,3108.66,3372.13,349.18,320.04,12.30,0000 0000 0000 0000 000000
2013-11-19 00:15:46,0.16,0.82,0.00,25.23,26.62,29.42,5.87,31.00,1014.17,2048.02,3177.07,3108.28,3372.05,349.22,319.69,12.31,0000 0000 0000 0000 000000
2013-11-19 00:16:47,0.12,0.82,0.00,25.22,26.62,29.40,5.85,31.13,1014.17,2048.02,3176.73,3108.10,3371.92,349.44,320.27,12.31,0000 0000 0000 0000 000000
2013-11-19 00:17:47,0.11,0.82,0.00,25.23,26.62,29.41,5.88,30.46,1014.18,2048.01,3176.28,3108.02,3371.40,351.11,321.79,12.32,0000 0000 0000 0000 000000
2013-11-19 00:18:47,0.13,0.82,0.00,25.23,26.62,29.41,5.77,30.75,1014.18,2048.00,3176.10,3107.65,3371.15,349.47,320.29,12.32,0000 0000 0000 0000 000000
2013-11-19 00:19:47,0.14,0.82,0.00,25.23,26.63,29.42,5.90,30.96,1014.18,2048.00,3175.66,3107.25,3371.00,350.46,321.20,12.33,0000 0000 0000 0000 000000
2013-11-19 00:20:48,0.17,0.82,0.00,25.23,26.63,29.30,5.99,31.13,1014.18,2048.00,3175.25,3107.09,3370.58,350.62,321.25,12.34,0000 0000 0000 0000 000000
2013-11-19 00:21:48,0.13,0.82,0.00,25.24,26.64,29.36,5.93,30.63,1014.18,2048.00,3175.09,3107.02,3370.21,349.50,320.31,12.34,0000 0000 0000 0000 000000
2013-11-19 00:22:48,0.09,0.82,0.00,25.24,26.65,29.38,5.98,30.83,1014.27,2048.00,3174.71,3106.79,3370.07,350.06,320.85,12.35,0000 0000 0000 0000 000000
2013-11-19 00:23:48,0.13,0.82,0.00,25.24,26.65,29.43,5.93,31.00,1014.28,2048.00,3174.26,3106.32,3369.91,350.49,321.24,12.35,0000 0000 0000 0000 000000
2013-11-19 00:24:49,0.19,0.82,0.00,25.24,26.65,29.47,5.85,30.88,1014.35,2048.00,3174.08,3106.12,3369.43,349.21,320.09,12.36,0000 0000 0000 0000 000000
2013-11-19 00:25:49,0.13,0.83,0.00,25.23,26.65,29.46,5.89,30.88,1014.30,2048.00,3173.67,3106.03,3369.15,350.06,321.16,12.36,0000 0000 0000 0000 000000
2013-11-19 00:26:49,0.11,0.83,0.00,25.25,26.65,29.44,5.94,31.04,1014.23,2048.00,3173.25,3105.70,3369.03,349.76,320.56,12.37,0000 0000 0000 0000 000000
2013-11-19 00:27:49,0.16,0.83,0.00,25.27,26.65,29.39,5.80,30.54,1014.32,2048.00,3173.07,3105.29,3368.61,349.40,320.22,12.38,0000 0000 0000 0000 000000
2013-11-19 00:28:50,0.17,0.83,0.00,25.28,26.66,29.44,5.77,30.83,1014.45,2048.00,3172.69,3105.10,3368.24,349.13,320.01,12.38,0000 0000 0000 0000 000000
2013-11-19 00:29:50,0.12,0.83,0.00,25.26,26.67,29.43,5.92,30.71,1014.25,2047.99,3172.26,3105.02,3368.08,350.41,320.35,12.39,0000 0000 0000 0000 000000
2013-11-19 00:30:50,0.09,0.83,0.00,25.29,26.67,29.37,5.96,30.96,1014.18,2047.99,3172.08,3104.74,3367.91,349.92,320.70,12.39,0000 0000 0000 0000 000000
2013-11-19 00:31:51,0.14,0.83,0.00,25.31,26.67,29.46,5.74,30.54,1014.19,2047.98,3171.77,3104.32,3367.46,350.06,320.75,12.40,0000 0000 0000 0000 000000
2013-11-19 00:32:51,0.18,0.83,0.00,25.29,26.67,29.46,5.91,30.96,1014.18,2047.96,3171.30,3104.12,3367.17,349.85,320.75,12.41,0000 0000 0000 0000 000000
2013-11-19 00:33:51,0.12,0.83,0.00,25.28,26.67,29.46,5.88,31.13,1014.17,2047.97,3171.08,3104.01,3367.05,349.76,320.50,12.41,0000 0000 0000 0000 000000
2013-11-19 00:34:52,0.11,0.83,0.00,25.27,26.67,29.43,5.95,30.88,1014.16,2047.97,3170.63,3103.56,3366.69,350.90,321.26,12.42,0000 0000 0000 0000 000000
2013-11-19 00:35:52,0.19,0.83,0.00,25.28,26.68,29.47,5.79,30.83,1014.14,2047.97,3170.24,3103.24,3366.28,349.72,320.45,12.42,0000 0000 0000 0000 000000
2013-11-19 00:36:52,0.17,0.83,0.00,25.30,26.68,29.44,5.89,30.92,1014.06,2047.98,3170.08,3103.09,3366.10,349.96,320.63,12.43,0000 0000 0000 0000 000000
2013-11-19 00:37:53,0.07,0.84,0.00,25.28,26.69,29.45,5.95,30.96,1013.76,2047.96,3169.74,3103.01,3365.95,351.43,321.61,12.44,0000 0000 0000 0000 000000
2013-11-19 00:38:53,0.12,0.84,0.00,25.27,26.70,29.42,5.84,31.00,1013.82,2047.96,3169.27,3102.66,3365.49,349.57,320.24,12.44,0000 0000 0000 0000 000000
2013-11-19 00:39:53,0.19,0.84,0.00,25.29,26.70,29.43,5.96,30.92,1013.73,2047.96,3169.08,3102.27,3365.19,350.42,320.95,12.45,0000 0000 0000 0000 000000
2013-11-19 00:40:53,0.14,0.84,0.00,25.30,26.70,29.44,5.88,31.25,1013.69,2047.96,3168.71,3102.10,3365.07,350.15,320.47,12.45,0000 0000 0000 0000 000000
2013-11-19 00:41:54,0.11,0.84,0.00,25.29,26.70,29.47,5.84,31.13,1013.70,2047.96,3168.26,3101.99,3364.86,350.15,320.69,12.46,0000 0000 0000 0000 000000
2013-11-19 00:42:54,0.14,0.84,0.00,25.28,26.70,29.40,5.88,31.29,1013.69,2047.96,3168.02,3101.61,3364.38,349.62,320.22,12.46,0000 0000 0000 0000 000000
2013-11-19 00:43:54,0.19,0.84,0.00,25.32,26.70,29.48,5.88,31.08,1013.69,2047.94,3167.49,3101.23,3364.13,350.49,320.98,12.47,0000 0000 0000 0000 000000
2013-11-19 00:44:54,0.15,0.84,0.00,25.33,26.70,29.48,5.88,31.25,1013.69,2047.92,3167.18,3101.08,3363.80,349.96,320.95,12.48,0000 0000 0000 0000 000000
2013-11-19 00:45:55,0.09,0.84,0.00,25.33,26.71,29.46,5.79,30.83,1013.72,2047.90,3167.00,3100.95,3363.35,350.01,320.52,12.48,0000 0000 0000 0000 000000
2013-11-19 00:46:55,0.13,0.84,0.00,25.35,26.72,29.47,5.90,31.04,1013.71,2047.84,3166.47,3100.47,3363.13,350.91,320.66,12.49,0000 0000 0000 0000 000000
2013-11-19 00:47:55,0.13,0.84,0.00,25.35,26.72,29.44,5.95,31.17,1013.68,2047.83,3166.18,3100.17,3363.04,350.55,320.41,12.49,0000 0000 0000 0000 000000
2013-11-19 00:48:55,0.12,0.84,0.00,25.32,26.72,29.45,5.93,31.04,1013.68,2047.86,3166.02,3100.06,3362.78,350.30,320.78,12.50,0000 0000 0000 0000 000000
2013-11-19 00:49:56,0.13,0.84,0.00,25.33,26.72,29.54,6.06,31.46,1013.70,2047.91,3165.64,3100.01,3362.36,350.79,321.24,12.51,0000 0000 0000 0000 000000
2013-11-19 00:50:56,0.15,0.85,0.00,25.32,26.72,29.47,5.84,31.08,1013.71,2047.91,3165.24,3099.66,3362.13,349.92,320.45,12.51,0000 0000 0000 0000 000000
2013-11-19 00:51:56,0.17,0.85,0.00,25.32,26.72,29.52,5.83,31.04,1013.69,2047.92,3165.07,3099.28,3362.02,349.00,319.61,12.52,0000 0000 0000 0000 000000
2013-11-19 00:52:57,0.12,0.85,0.00,25.31,26.73,29.53,5.97,31.21,1013.70,2047.92,3164.73,3099.10,3361.69,349.14,320.04,12.52,0000 0000 0000 0000 000000
2013-11-19 00:53:57,0.14,0.85,0.00,25.31,26.74,29.45,5.84,31.04,1013.72,2047.92,3164.28,3098.96,3361.27,349.29,319.89,12.53,0000 0000 0000 0000 000000
2013-11-19 00:54:57,0.13,0.85,0.00,25.31,26.75,29.50,5.83,30.75,1013.70,2047.87,3164.10,3098.61,3361.08,350.20,320.72,12.53,0000 0000 0000 0000 000000
2013-11-19 00:55:58,0.09,0.85,0.00,25.32,26.75,29.53,5.87,31.50,1013.75,2047.80,3163.80,3098.26,3360.84,349.69,320.22,12.54,0000 0000 0000 0000 000000
2013-11-19 00:56:58,0.07,0.85,0.00,25.32,26.75,29.48,5.86,31.46,1013.78,2047.60,3163.30,3098.07,3360.35,349.38,320.06,12.55,0000 0000 0000 0000 000000
2013-11-19 00:57:58,0.03,0.85,0.00,25.33,26.75,29.52,5.84,31.42,1013.75,2047.50,3162.87,3097.70,3360.11,350.04,320.57,12.55,0000 0000 0000 0000 000000
2013-11-19 00:58:58,0.11,0.85,0.00,25.34,26.75,29.52,5.93,31.50,1013.75,2047.37,3162.33,3097.27,3359.77,350.16,320.67,12.56,0000 0000 0000 0000 000000
2013-11-19 00:59:59,0.14,0.85,0.00,25.34,26.75,29.52,5.93,31.50,1013.92,2047.33,3162.12,3097.09,3359.30,349.96,320.79,12.56,0000 0000 0000 0000 000000
2013-11-19 01:00:59,0.09,0.85,0.00,25.34,26.75,29.51,6.01,31.33,1013.76,2047.39,3161.83,3096.99,3359.10,351.40,321.76,12.57,0000 0000 0000 0000 000000
2013-11-19 01:01:59,0.17,0.85,0.00,25.35,26.77,29.51,5.85,31.38,1014.02,2047.40,3161.34,3096.61,3358.73,349.75,320.73,12.58,0000 0000 0000 0000 000000
2013-11-19 01:03:00,0.17,0.85,0.00,25.35,26.77,29.49,5.79,31.13,1014.03,2047.27,3161.10,3096.23,3358.28,350.50,321.05,12.58,0000 0000 0000 0000 000000
2013-11-19 01:04:00,0.08,0.86,0.00,25.33,26.77,29.51,5.87,30.96,1014.15,2047.21,3160.74,3096.08,3358.10,350.46,321.17,12.59,0000 0000 0000 0000 000000
2013-11-19 01:05:00,0.07,0.86,0.00,25.33,26.77,29.53,5.82,30.67,1014.17,2047.22,3160.32,3095.96,3358.00,350.20,320.25,12.59,0000 0000 0000 0000 000000
2013-11-19 01:06:01,0.09,0.86,0.00,25.31,26.77,29.48,5.86,31.00,1014.17,2047.17,3160.11,3095.54,3357.63,349.68,320.50,12.60,0000 0000 0000 0000 000000
2013-11-19 01:07:01,0.12,0.86,0.00,25.34,26.77,29.52,5.89,30.96,1014.17,2047.11,3159.80,3095.22,3357.25,350.20,320.84,12.61,0000 0000 0000 0000 000000
2013-11-19 01:08:01,0.14,0.86,0.00,25.32,26.77,29.51,5.97,30.96,1014.17,2047.11,3159.32,3095.08,3357.09,350.37,321.02,12.61,0000 0000 0000 0000 000000
2013-11-19 01:09:02,0.09,0.86,0.00,25.32,26.78,29.52,5.93,31.00,1014.18,2047.09,3159.09,3094.85,3356.77,350.39,321.04,12.62,0000 0000 0000 0000 000000
2013-11-19 01:10:02,0.16,0.86,0.00,25.32,26.79,29.50,5.98,30.92,1014.18,2047.06,3158.62,3094.39,3356.30,350.42,321.06,12.62,0000 0000 0000 0000 000000
2013-11-19 01:11:02,0.18,0.86,0.00,25.35,26.80,29.52,5.95,31.04,1014.18,2047.04,3158.22,3094.14,3356.10,350.55,321.15,12.63,0000 0000 0000 0000 000000
2013-11-19 01:12:02,0.11,0.86,0.00,25.33,26.80,29.57,5.77,31.08,1014.18,2047.02,3157.89,3093.98,3355.81,349.29,320.01,12.63,0000 0000 0000 0000 000000
2013-11-19 01:13:03,0.17,0.86,0.00,25.34,26.80,29.57,5.84,31.17,1014.18,2047.03,3157.37,3093.57,3355.33,349.15,319.88,12.64,0000 0000 0000 0000 000000
2013-11-19 01:14:03,0.21,0.86,0.00,25.35,26.80,29.55,5.99,31.17,1014.19,2047.03,3157.13,3093.22,3355.11,349.94,320.59,12.65,0000 0000 0000 0000 000000
2013-11-19 01:15:03,0.12,0.86,0.00,25.32,26.80,29.47,5.89,30.50,1014.18,2047.01,3156.77,3093.06,3354.94,349.33,319.73,12.65,0000 0000 0000 0000 000000
2013-11-19 01:16:04,0.12,0.87,0.00,25.31,26.80,29.50,5.80,30.54,1014.18,2047.00,3156.30,3092.92,3354.47,349.18,320.08,12.66,0000 0000 0000 0000 000000
2013-11-19 01:17:04,0.17,0.87,0.00,25.32,26.80,29.48,5.82,30.96,1014.18,2047.00,3156.09,3092.45,3354.17,348.59,319.12,12.66,0000 0000 0000 0000 000000
2013-11-19 01:18:04,0.17,0.87,0.00,25.33,26.81,29.56,6.02,30.92,1014.18,2047.00,3155.83,3092.16,3354.01,349.60,320.29,12.67,0000 0000 0000 0000 000000
2013-11-19 01:19:04,0.15,0.87,0.00,25.36,26.81,29.58,5.92,31.33,1014.16,2047.00,3155.34,3092.04,3353.47,350.06,320.21,12.68,0000 0000 0000 0000 000000
2013-11-19 01:20:05,0.15,0.87,0.00,25.36,26.82,29.56,5.88,31.04,1014.14,2047.00,3155.09,3091.72,3353.17,349.26,319.94,12.68,0000 0000 0000 0000 000000
2013-11-19 01:21:05,0.15,0.87,0.00,25.37,26.82,29.53,5.81,30.67,1013.99,2047.00,3154.67,3091.32,3353.05,350.18,320.78,12.69,0000 0000 0000 0000 000000
2013-11-19 01:22:05,0.17,0.87,0.00,25.38,26.82,29.57,5.73,30.79,1013.79,2047.00,3154.25,3091.12,3352.66,349.32,319.93,12.69,0000 0000 0000 0000 000000
2013-11-19 01:23:05,0.15,0.87,0.00,25.38,26.82,29.56,5.99,31.33,1013.71,2047.00,3153.92,3090.98,3352.25,349.78,320.04,12.70,0000 0000 0000 0000 000000
2013-11-19 01:24:06,0.15,0.87,0.00,25.37,26.82,29.55,5.84,30.58,1013.70,2047.00,3153.38,3090.61,3352.08,349.66,320.83,12.70,0000 0000 0000 0000 000000
2013-11-19 01:25:06,0.17,0.87,0.00,25.35,26.82,29.56,5.87,30.63,1013.70,2047.00,3153.14,3090.25,3351.92,350.20,320.51,12.71,0000 0000 0000 0000 000000
2013-11-19 01:26:06,0.14,0.87,0.00,25.35,26.82,29.63,5.93,30.71,1013.72,2047.00,3152.93,3090.09,3351.43,349.53,319.77,12.72,0000 0000 0000 0000 000000
2013-11-19 01:27:06,0.13,0.88,0.00,25.34,26.82,29.59,5.94,30.75,1013.73,2047.00,3152.41,3089.89,3351.15,349.86,320.24,12.72,0000 0000 0000 0000 000000
2013-11-19 01:28:07,0.16,0.88,0.00,25.34,26.83,29.60,5.71,31.46,1013.76,2047.00,3152.12,3089.42,3350.90,349.34,319.32,12.73,0000 0000 0000 0000 000000
2013-11-19 01:29:07,0.19,0.88,0.00,25.36,26.84,29.60,5.96,30.88,1013.74,2047.00,3151.66,3089.15,3350.38,350.35,320.82,12.73,0000 0000 0000 0000 000000
2013-11-19 01:30:07,0.17,0.88,0.00,25.37,26.84,29.57,5.96,30.54,1013.70,2047.00,3151.25,3089.05,3350.13,350.43,320.86,12.74,0000 0000 0000 0000 000000
2013-11-19 01:31:08,0.11,0.88,0.00,25.38,26.85,29.60,6.05,31.25,1013.73,2047.00,3151.05,3088.77,3349.92,350.49,320.82,12.75,0000 0000 0000 0000 000000
2013-11-19 01:32:08,0.16,0.88,0.00,25.36,26.85,29.53,5.98,31.50,1013.71,2047.00,3150.50,3088.32,3349.44,350.87,321.28,12.75,0000 0000 0000 0000 000000
2013-11-19 01:33:08,0.21,0.88,0.00,25.34,26.85,29.60,5.88,30.71,1013.70,2047.00,3150.18,3088.11,3349.16,350.58,321.03,12.76,0000 0000 0000 0000 000000
2013-11-19 01:34:08,0.13,0.88,0.00,25.34,26.85,29.56,5.85,31.25,1013.70,2047.00,3150.00,3088.00,3349.03,349.03,319.89,12.76,0000 0000 0000 0000 000000
2013-11-19 01:35:09,0.09,0.88,0.00,25.37,26.85,29.52,5.87,31.29,1013.70,2047.00,3149.49,3087.64,3348.67,349.56,320.07,12.77,0000 0000 0000 0000 000000
2013-11-19 01:36:09,0.20,0.88,0.00,25.36,26.85,29.56,5.85,30.71,1013.72,2047.00,3149.18,3087.25,3348.25,349.91,320.78,12.78,0000 0000 0000 0000 000000
2013-11-19 01:37:09,0.17,0.88,0.00,25.34,26.85,29.63,6.02,31.21,1013.78,2047.00,3148.78,3087.09,3348.09,350.82,321.04,12.78,0000 0000 0000 0000 000000
2013-11-19 01:38:09,0.12,0.89,0.00,25.34,26.85,29.55,5.99,31.25,1013.75,2047.00,3148.32,3086.91,3347.72,350.14,320.65,12.79,0000 0000 0000 0000 000000
2013-11-19 01:39:10,0.18,0.89,0.00,25.34,26.85,29.53,6.03,31.29,1013.71,2047.00,3148.11,3086.45,3347.26,351.06,321.47,12.79,0000 0000 0000 0000 000000
2013-11-19 01:40:10,0.17,0.89,0.00,25.36,26.86,29.50,5.84,31.04,1013.88,2047.00,3147.75,3086.17,3347.09,350.09,320.62,12.80,0000 0000 0000 0000 000000
2013-11-19 01:41:10,0.14,0.89,0.00,25.39,26.86,29.63,5.84,30.79,1013.97,2047.00,3147.28,3086.06,3346.74,350.11,320.65,12.80,0000 0000 0000 0000 000000
2013-11-19 01:42:11,0.13,0.89,0.00,25.39,26.87,29.55,5.95,31.29,1013.91,2047.00,3147.03,3085.78,3346.28,350.56,321.04,12.81,0000 0000 0000 0000 000000
2013-11-19 01:43:11,0.18,0.89,0.00,25.38,26.87,29.60,5.76,31.54,1013.97,2047.00,3146.50,3085.33,3346.09,348.77,319.09,12.82,0000 0000 0000 0000 000000
2013-11-19 01:44:11,0.19,0.89,0.00,25.35,26.87,29.57,5.89,31.00,1014.06,2047.00,3146.17,3085.11,3345.70,348.98,319.94,12.82,0000 0000 0000 0000 000000
2013-11-19 01:45:11,0.15,0.89,0.00,25.35,26.87,29.52,5.88,31.13,1014.13,2047.00,3145.81,3084.87,3345.26,349.37,319.70,12.83,0000 0000 0000 0000 000000
2013-11-19 01:46:12,0.19,0.89,0.00,25.36,26.87,29.61,5.89,30.50,1014.15,2047.00,3145.31,3084.38,3345.07,350.20,320.81,12.83,0000 0000 0000 0000 000000
2013-11-19 01:47:12,0.18,0.89,0.00,25.36,26.87,29.61,5.93,30.50,1014.10,2047.00,3145.10,3084.14,3344.76,350.73,321.28,12.84,0000 0000 0000 0000 000000
2013-11-19 01:48:12,0.13,0.90,0.00,25.34,26.87,29.58,5.81,30.75,1014.09,2047.00,3144.75,3084.02,3344.32,348.18,319.15,12.85,0000 0000 0000 0000 000000
2013-11-19 01:49:13,0.14,0.90,0.00,25.34,26.87,29.59,5.98,31.50,1014.01,2047.00,3144.27,3083.79,3344.11,349.78,320.40,12.85,0000 0000 0000 0000 000000
2013-11-19 01:50:13,0.16,0.90,0.00,25.35,26.87,29.62,5.82,30.83,1013.84,2047.00,3144.01,3083.32,3343.84,349.28,319.88,12.86,0000 0000 0000 0000 000000
2013-11-19 01:51:13,0.19,0.90,0.00,25.36,26.87,29.65,5.89,30.92,1013.74,2047.00,3143.48,3083.11,3343.34,349.09,319.65,12.86,0000 0000 0000 0000 000000
2013-11-19 01:52:13,0.17,0.90,0.00,25.38,26.88,29.60,5.80,31.17,1013.76,2047.00,3143.17,3083.00,3343.12,349.99,320.47,12.87,0000 0000 0000 0000 000000
2013-11-19 01:53:13,0.09,0.90,0.00,25.37,26.88,29.64,5.80,30.88,1013.71,2047.00,3142.90,3082.58,3342.91,349.39,319.18,12.87,0000 0000 0000 0000 000000
2013-11-19 01:54:14,0.20,0.90,0.00,25.35,26.89,29.58,5.82,31.21,1013.69,2047.00,3142.41,3082.22,3342.39,349.76,320.52,12.88,0000 0000 0000 0000 000000
2013-11-19 01:55:14,0.19,0.90,0.00,25.36,26.89,29.68,6.02,31.04,1013.77,2047.00,3142.14,3082.07,3342.13,351.30,321.69,12.89,0000 0000 0000 0000 000000
2013-11-19 01:56:14,0.09,0.90,0.00,25.37,26.90,29.56,5.71,31.04,1013.97,2047.00,3141.78,3081.78,3341.89,349.49,320.09,12.89,0000 0000 0000 0000 000000
2013-11-19 01:57:14,0.21,0.90,0.00,25.39,26.90,29.59,5.94,31.33,1014.07,2047.00,3141.32,3081.31,3341.38,350.89,321.38,12.90,0000 0000 0000 0000 000000
2013-11-19 01:58:14,0.20,0.91,0.00,25.40,26.90,29.63,5.97,31.71,1014.14,2047.00,3141.09,3081.11,3341.13,350.61,321.14,12.90,0000 0000 0000 0000 000000
2013-11-19 01:59:15,0.10,0.91,0.00,25.41,26.90,29.58,5.92,31.63,1014.15,2047.00,3140.64,3080.93,3340.92,350.30,320.85,12.91,0000 0000 0000 0000 000000
2013-11-19 02:00:15,0.17,0.91,0.00,25.41,26.90,29.60,6.06,31.08,1014.13,2047.00,3140.23,3080.53,3340.43,351.41,321.86,12.92,0000 0000 0000 0000 000000
2013-11-19 02:01:15,0.20,0.91,0.00,25.39,26.90,29.63,5.97,31.13,1014.08,2047.00,3140.04,3080.22,3340.15,349.99,320.56,12.92,0000 0000 0000 0000 000000
2013-11-19 02:02:15,0.12,0.91,0.00,25.41,26.90,29.58,6.02,31.42,1014.11,2047.00,3139.63,3080.08,3340.02,350.71,321.13,12.93,0000 0000 0000 0000 000000
2013-11-19 02:03:16,0.12,0.91,0.00,25.40,26.90,29.60,5.96,31.04,1014.17,2047.00,3139.24,3079.93,3339.59,350.93,321.44,12.93,0000 0000 0000 0000 000000
2013-11-19 02:04:16,0.15,0.91,0.00,25.40,26.90,29.63,5.92,31.04,1014.17,2047.00,3138.99,3079.53,3339.21,349.86,320.37,12.94,0000 0000 0000 0000 000000
2013-11-19 02:05:16,0.18,0.91,0.00,25.42,26.90,29.62,5.86,30.67,1014.17,2047.00,3138.49,3079.20,3339.06,349.10,319.82,12.95,0000 0000 0000 0000 000000
2013-11-19 02:06:16,0.16,0.91,0.00,25.40,26.90,29.64,5.83,31.04,1014.17,2047.00,3138.16,3079.06,3338.68,349.31,320.22,12.95,0000 0000 0000 0000 000000
2013-11-19 02:07:16,0.13,0.91,0.00,25.42,26.90,29.69,5.79,30.50,1014.20,2047.00,3137.79,3078.73,3338.28,349.65,320.53,12.96,0000 0000 0000 0000 000000
2013-11-19 02:08:17,0.21,0.91,0.00,25.41,26.90,29.63,5.67,31.13,1014.18,2047.00,3137.33,3078.29,3338.09,349.32,319.96,12.96,0000 0000 0000 0000 000000
2013-11-19 02:09:17,0.16,0.92,0.00,25.41,26.91,29.66,5.88,31.08,1014.20,2047.00,3137.12,3078.11,3337.91,349.56,320.31,12.97,0000 0000 0000 0000 000000
2013-11-19 02:10:17,0.10,0.92,0.00,25.40,26.91,29.61,5.86,31.29,1014.18,2047.00,3136.88,3078.02,3337.43,349.03,319.70,12.97,0000 0000 0000 0000 000000
2013-11-19 02:11:17,0.13,0.92,0.00,25.42,26.92,29.62,5.85,31.25,1014.20,2047.00,3136.38,3077.82,3337.16,349.70,320.30,12.98,0000 0000 0000 0000 000000
2013-11-19 02:12:18,0.15,0.92,0.00,25.40,26.92,29.66,5.97,31.50,1014.19,2047.00,3136.13,3077.38,3336.96,350.01,320.60,12.99,0000 0000 0000 0000 000000
2013-11-19 02:13:18,0.16,0.92,0.00,25.41,26.92,29.63,5.86,30.79,1014.19,2047.00,3135.82,3077.13,3336.46,349.56,320.18,12.99,0000 0000 0000 0000 000000
2013-11-19 02:14:18,0.16,0.92,0.00,25.42,26.92,29.62,6.01,30.50,1014.41,2047.00,3135.39,3077.03,3336.16,351.10,321.64,13.00,0000 0000 0000 0000 000000
2013-11-19 02:15:18,0.12,0.92,0.00,25.44,26.92,29.63,5.83,31.17,1014.50,2047.00,3135.14,3076.81,3336.03,349.28,319.98,13.00,0000 0000 0000 0000 000000
2013-11-19 02:16:19,0.12,0.92,0.00,25.43,26.92,29.61,5.95,30.92,1014.38,2047.00,3135.02,3076.34,3335.60,350.12,320.72,13.01,0000 0000 0000 0000 000000
2013-11-19 02:17:19,0.18,0.92,0.00,25.43,26.92,29.61,6.08,31.00,1014.32,2047.00,3134.68,3076.12,3335.25,350.99,321.70,13.02,0000 0000 0000 0000 000000
2013-11-19 02:18:19,0.15,0.92,0.00,25.43,26.92,29.64,5.88,30.83,1014.26,2047.00,3134.28,3076.04,3335.09,349.67,320.28,13.02,0000 0000 0000 0000 000000
2013-11-19 02:19:19,0.08,0.92,0.00,25.45,26.92,29.65,5.87,30.67,1014.21,2047.00,3134.06,3075.74,3334.87,350.01,320.56,13.03,0000 0000 0000 0000 000000
2013-11-19 02:20:20,0.15,0.92,0.00,25.45,26.92,29.64,5.85,30.96,1014.22,2047.00,3133.63,3075.28,3334.41,351.40,321.83,13.03,0000 0000 0000 0000 000000
2013-11-19 02:21:20,0.21,0.93,0.00,25.43,26.92,29.66,5.98,31.00,1014.30,2047.00,3133.24,3075.10,3334.15,350.85,321.38,13.04,0000 0000 0000 0000 000000
2013-11-19 02:22:20,0.12,0.93,0.00,25.42,26.92,29.69,5.98,30.63,1014.49,2047.00,3133.05,3075.03,3334.05,350.36,321.00,13.04,0000 0000 0000 0000 000000
2013-11-19 02:23:20,0.05,0.93,0.00,25.42,26.93,29.59,5.84,30.63,1014.48,2047.00,3132.74,3074.86,3333.83,350.09,320.75,13.05,0000 0000 0000 0000 000000
2013-11-19 02:24:20,0.16,0.93,0.00,25.41,26.94,29.59,5.92,31.38,1014.59,2047.00,3132.29,3074.38,3333.33,349.83,320.56,13.06,0000 0000 0000 0000 000000
2013-11-19 02:25:21,0.21,0.93,0.00,25.39,26.94,29.71,5.80,31.08,1014.66,2047.00,3132.09,3074.14,3333.11,349.65,320.99,13.06,0000 0000 0000 0000 000000
2013-11-19 02:26:21,0.11,0.93,0.00,25.41,26.94,29.58,6.05,31.17,1014.66,2047.00,3131.58,3074.02,3332.88,350.77,321.23,13.07,0000 0000 0000 0000 000000
2013-11-19 02:27:21,0.15,0.93,0.00,25.44,26.95,29.62,5.76,30.96,1014.66,2047.00,3131.21,3073.63,3332.38,348.51,319.50,13.07,0000 0000 0000 0000 000000
2013-11-19 02:28:21,0.21,0.93,0.00,25.44,26.95,29.70,5.81,30.96,1014.68,2047.00,3131.00,3073.24,3332.13,349.77,320.49,13.08,0000 0000 0000 0000 000000
2013-11-19 02:29:22,0.14,0.93,0.00,25.43,26.95,29.64,5.99,31.17,1014.69,2047.00,3130.55,3073.08,3332.00,349.91,320.09,13.09,0000 0000 0000 0000 000000
2013-11-19 02:30:22,0.12,0.93,0.00,25.44,26.95,29.68,5.86,30.79,1014.68,2047.00,3130.20,3073.00,3331.55,349.75,320.48,13.09,0000 0000 0000 0000 000000
2013-11-19 02:31:22,0.14,0.93,0.00,25.43,26.95,29.66,5.98,31.08,1014.69,2047.00,3129.94,3072.64,3331.20,350.74,321.40,13.10,0000 0000 0000 0000 000000
2013-11-19 02:32:22,0.18,0.94,0.00,25.44,26.95,29.68,5.82,30.83,1014.70,2047.00,3129.40,3072.26,3331.06,349.72,320.45,13.10,0000 0000 0000 0000 000000
2013-11-19 02:33:23,0.16,0.94,0.00,25.44,26.95,29.63,5.88,30.96,1014.71,2046.99,3129.13,3072.09,3330.68,350.89,321.49,13.11,0000 0000 0000 0000 000000
2013-11-19 02:34:23,0.11,0.94,0.00,25.44,26.95,29.66,5.88,30.96,1014.72,2046.98,3128.84,3071.97,3330.28,349.04,319.57,13.11,0000 0000 0000 0000 000000
2013-11-19 02:35:23,0.12,0.94,0.00,25.44,26.95,29.61,5.92,31.04,1014.73,2046.98,3128.38,3071.52,3330.10,349.69,320.44,13.12,0000 0000 0000 0000 000000
2013-11-19 02:36:23,0.21,0.94,0.00,25.44,26.95,29.69,5.83,30.83,1014.69,2046.98,3128.13,3071.20,3329.96,348.88,319.68,13.13,0000 0000 0000 0000 000000